LYBE

Belgrade/Nikola Tesla Airport

Airport
ICAO code
LYBE
IATA Code
BEG
Summary
ICAO Region
EUR
ICAO Territory
Location

Surčin, Belgrade

Serving
Belgrade
Elevation
336 ft
Coordinates
44° 49' 6" N , 20° 18' 33" E
KCC
Metar
Observation
LYBE 312000Z 28009KT CAVOK 03/01 Q1021 NOSIG
Station
Beograd / Surcin
Date/Time
2023-01-31 21:00:00
Wind direction
280°
Wind speed
09 kts
Lowest cloud amount
clouds and visibility OK
Temperature
3°C
Dew point
1°C
Humidity
86%
QNH
1021 hPa
Weather condition
n/a

Description

International airport serving capital of Serbia. The airport is situated 12 km west of central Belgrade, in the municipality of Surčin.

Climatology

Humid continental climate (Köppen climate classification Dfa) - characterized by four seasons: cold, windy, snowy winters, mild springs, hot, humid summers, and crisp and relatively short autumns. Precipitation reaches its lowest in January and February and peaks in summer and latter half of spring.

Runways

Designator Length Width Surface Rops
12/30 3400 45 ASP Yes/Yes

Airport map

Aerial View

SKYbrary Partners:

Safety knowledge contributed by: